Regional Weather Roundup
Issued by NWS Albany, NY

Home | Current Version | Previous Version | Text Only | Print | Product List | Glossary On
Versions: 1 2 3 4 5 6 7 8 9 10 11 12 13 14 15 16 17 18 19 20 21 22 23 24 25 26 27
000
ASUS41 KALY 301110
RWRALY

NEW YORK STATE HOURLY WEATHER ROUNDUP
NATIONAL WEATHER SERVICE ALBANY NY
700 AM EDT THU MAR 30 2017

NOTE: "FAIR" INDICATES FEW OR NO CLOUDS BELOW 12,000 FEET WITH NO
SIGNIFICANT WEATHER AND/OR NO OBSTRUCTIONS TO VISIBILITY.

NYZ032-033-038>043-046>054-057>066-NYZ062>081-082-084-301200-
EAST


CITY           SKY/WX    TMP DP  RH WIND       PRES   REMARKS
ALBANY         PTCLDY    27  21  78 N3        30.28R
GLENS FALLS    CLEAR     27  19  72 NW7       30.27R WCI  19
POUGHKEEPSIE   CLEAR     26  23  88 CALM      30.27R
NEWBURGH       CLEAR     30  25  80 NW5       30.25S WCI  25
MONTGOMERY     CLEAR     27  24  89 SW3       30.25R
WHITE PLAINS   CLEAR     31  22  69 W5        30.25R WCI  26
ISLIP          PTCLDY    35  25  66 N8        30.23S WCI  29
NEW YORK CITY  PTCLDY    41  23  48 N8        30.26R
CENTRAL PARK   CLEAR     38  22  52 NE5       30.28R WCI  34
$$

NYZ005>009-017-018-044>046-055-056-301200-
CENTRAL


CITY           SKY/WX    TMP DP  RH WIND       PRES   REMARKS
FULTON         PTCLDY    28  24  85 CALM      30.31R
SYRACUSE       MOCLDY    29  24  82 CALM      30.30S
ROME           CLOUDY    22  21  96 CALM      30.31R
ELMIRA         CLOUDY    29  24  82 NE6       30.26S WCI  23
BINGHAMTON     PTCLDY    29  20  69 N6        30.23R WCI  23
MONTICELLO     CLEAR     27  21  80 NW6       30.23R WCI  20
$$

NYZ026>034-041>043-087-301200-
NORTH


CITY           SKY/WX    TMP DP  RH WIND       PRES   REMARKS
WATERTOWN      CLEAR     20  19  96 E3        30.32S
FORT DRUM      NOT AVBL
MASSENA        PTCLDY    24  20  84 CALM      30.33R
SARANAC LAKE   CLOUDY    22  16  78 CALM      30.21R
PLATTSBURGH    CLOUDY    33  21  61 NW7       30.30R WCI  27
$$

NYZ001>004-010>016-019>021-085-301200-
WEST


CITY           SKY/WX    TMP DP  RH WIND       PRES   REMARKS
NIAGARA FALLS  CLOUDY    37  25  61 E9        30.23F WCI  30
BUFFALO        CLOUDY    35  22  58 E13       30.23F WCI  26
DUNKIRK        CLOUDY    37  26  64 NE9       30.19F WCI  30
JAMESTOWN      CLOUDY    36  21  55 SE10      30.13F WCI  28
WELLSVILLE     CLOUDY    31  22  69 SE8       30.19S WCI  23
ROCHESTER      CLOUDY    35  25  66 E9        30.29R WCI  28
PENN YAN       CLOUDY    31  26  82 CALM      30.27S
$$

             KEY
       WCI = WIND CHILL INDEX
       VSB = VISIBILITY
       HX  = HEAT INDEX
$$




USA.gov is the U.S. government's official web portal to all federal, state and local government web resources and services.